Location: Peterborough
(44.3091°N, 78.3197°W)
Time: 17:05:19
(UTC-04:00)

Transit 2A - Pass Details

Date: 23 March 2023
Orbit: 591 x 964 km, 66.7° (Epoch: 04 June)

Event Time Altitude Azimuth Distance (km) Brightness Sun altitude
Rises 12:10:42 0° 328° (NNW) 3,562 9.0 44.2°
Maximum altitude 12:17:14 10° 18° (NNE) 2,664 8.6 44.6°
Drops below altitude 10° 12:18:13 10° 27° (NNE) 2,696 8.6 44.7°
Sets 12:23:52 0° 67° (ENE) 3,653 9.5 45.0°
